Location: Newark
(47.9617°N, 8.0103°E)
Time: 11:12:20
(UTC+00:00)

N. Korean satellite - Visible Passes

Search period start: 12 December 2019 00:00
Search period end: 22 December 2019 00:00
Orbit: 455 x 506 km, 97.2° (Epoch: 12 December)

Date Brightness Start Highest point End Pass type
(mag) Time Alt. Az. Time Alt. Az. Time Alt. Az.
12 Dec 10.1 04:12:53 10° ENE 04:13:47 11° E 04:14:40 10° ESE visible
12 Dec 6.5 05:44:06 10° N 05:47:35 58° WNW 05:51:00 10° SSW visible
12 Dec 6.6 16:22:16 10° SSE 16:25:58 85° ENE 16:29:39 10° NNW visible
13 Dec 6.8 05:18:38 10° NNE 05:22:10 67° E 05:25:36 10° S visible
13 Dec 9.8 17:31:48 10° SW 17:34:10 16° W 17:36:32 10° NW visible
14 Dec 8.4 04:53:26 10° NNE 04:56:38 32° E 04:59:46 10° SSE visible
14 Dec 7.9 06:27:16 10° NNW 06:29:50 19° WNW 06:32:23 10° WSW visible
14 Dec 8.8 17:05:17 10° SSW 17:08:33 30° W 17:11:50 10° NNW visible
15 Dec 9.5 04:28:41 10° NE 04:31:01 17° E 04:33:18 10° SE visible
15 Dec 7.0 06:01:20 10° N 06:04:34 35° WNW 06:07:45 10° SW visible
15 Dec 7.3 16:39:24 10° S 16:43:02 59° W 16:46:40 10° NNW visible
16 Dec 6.3 05:35:41 10° N 05:39:12 74° WNW 05:42:38 10° SSW visible
16 Dec 6.6 16:13:57 10° SSE 16:17:36 68° ENE 16:21:15 10° N visible
16 Dec 10.3 17:50:48 10° W 17:51:25 10° W 17:52:01 10° WNW visible
17 Dec 7.3 05:10:19 10° NNE 05:13:44 52° E 05:17:06 10° S visible
17 Dec 9.5 17:23:01 10° SW 17:25:44 19° W 17:28:26 10° NW visible
18 Dec 8.8 04:45:13 10° NE 04:48:11 25° E 04:51:06 10° SSE visible
18 Dec 7.6 06:18:41 10° NNW 06:21:30 23° WNW 06:24:16 10° WSW visible
18 Dec 8.3 16:56:44 10° SSW 17:00:09 36° W 17:03:33 10° NNW visible
19 Dec 9.8 04:20:44 10° ENE 04:22:31 13° E 04:24:17 10° ESE visible
19 Dec 6.7 05:52:51 10° N 05:56:11 44° WNW 05:59:28 10° SW visible
19 Dec 6.8 16:30:59 10° S 16:34:39 75° W 16:38:17 10° NNW visible
20 Dec 6.4 05:27:17 10° NNE 05:30:47 87° E 05:34:13 10° SSW visible
20 Dec 10.0 17:41:16 10° WSW 17:42:56 13° W 17:44:35 10° WNW visible
21 Dec 7.8 05:01:59 10° NNE 05:05:17 40° E 05:08:32 10° S visible
21 Dec 8.1 06:36:16 10° NNW 06:38:22 15° WNW 06:40:28 10° WSW visible
21 Dec 9.2 17:14:18 10° SSW 17:17:16 23° W 17:20:14 10° NW visible
